Location: Arroyo de Valdeoliva
(40.1604°N, 4.9878°W)
Time: 03:46:38
(UTC+00:00)

Cosmos 2098 Rocket - Pass Details

Date: 11 December 2025
Orbit: 350 x 865 km, 82.9° (Epoch: 13 January)

Event Time Altitude Azimuth Distance (km) Brightness Sun altitude
Rises 17:28:40 0° 193° (SSW) 2,606 6.9 -6.7°
Reaches altitude 10° 17:30:38 10° 197° (SSW) 1,801 6.1 -7.0°
Maximum altitude 17:34:36 65° 279° (W) 674 3.5 -7.7°
Drops below altitude 10° 17:39:19 10° 2° (N) 2,143 5.6 -8.5°
Sets 17:41:50 0° 5° (N) 3,153 6.4 -9.0°
